Home   Weather   Norderstedt   Past weeks

Flag for Germany Past Weather in Norderstedt, Schleswig-Holstein, Germany — Yesterday and Last 2 Weeks

Now
48 °F

Drizzle. Partly sunny.


Feels Like: 42 °F
Forecast: 41 / 48 °F
Wind: 17 mph from West

Location: Hamburg-Fuhlsbuettel

Current Time: Feb 22, 2017 at 9:38:00 am

Latest Report: Feb 22, 2017 at 8:50 am


Visibility: 3 mi

Pressure: 29.42 "Hg

Humidity: 94%

Dew Point: 46 °F

Location of NorderstedtLocation

Past Weather in Norderstedt — Graph

°F

Norderstedt Temperature Yesterday

Maximum temperature yesterday: 46 °F (at 12:20 am)
Minimum temperature yesterday: 39 °F (at 8:20 pm)
Average temperature yesterday: 44 °F

High & Low Weather Summary for the Past Weeks

 TemperatureHumidityPressure
High50 °F (Feb 15, 3:20 pm)100% (Feb 14, 3:20 am)30.66 "Hg (Feb 14, 3:20 am)
Low19 °F (Feb 14, 7:50 am)43% (Feb 15, 3:20 pm)29.42 "Hg (Feb 22, 6:20 am)
Average35 °F81%30.27 "Hg
* Reported Feb 7 8:20 am — Feb 22 8:20 am, Norderstedt, Weather by CustomWeather, © 2017

Note: Actual official high and low records may vary slightly from our data, if they occured in-between our weather recording intervals... More about our weather records

Advertising

Norderstedt Weather History for the Previous 24 Hours

Scroll right to see more
 ConditionsComfort  
Time TempWeatherWind HumidityBarometerVisibility
8:20 am
Wed, Feb 22
48 °FDrizzle. Broken clouds.17 mph94%29.42 "Hg4 mi
7:50 am48 °FRain. Broken clouds.16 mph94%29.42 "Hg5 mi
7:20 am48 °FLight rain. Passing clouds.18 mph94%29.42 "Hg5 mi
6:50 am48 °FLight rain. Partly cloudy.18 mph94%29.42 "Hg5 mi
6:20 am50 °FLight rain. Passing clouds.20 mph88%29.42 "Hg4 mi
5:50 am50 °FLight rain. Passing clouds.21 mph94%29.45 "Hg4 mi
5:20 am50 °FLight rain. Passing clouds.20 mph94%29.45 "Hg4 mi
4:50 am48 °FPassing clouds.20 mph100%29.45 "Hg3 mi
4:20 am48 °FPassing clouds.18 mph94%29.47 "Hg3 mi
3:50 am46 °FPassing clouds.20 mph93%29.47 "Hg3 mi
3:20 am45 °FPassing clouds.21 mph100%29.50 "Hg3 mi
2:50 am45 °FLight rain. Passing clouds.20 mph93%29.53 "HgN/A
2:20 am45 °FLight rain. Passing clouds.21 mph87%29.56 "HgN/A
1:50 am45 °FLight rain. Mostly cloudy.20 mph87%29.59 "HgN/A
1:20 am45 °FLight rain. Mostly cloudy.18 mph81%29.62 "HgN/A
12:50 am43 °FOvercast.14 mph81%29.65 "HgN/A
12:20 am43 °FClear.13 mph81%29.71 "Hg10 mi
11:50 pm
Tue, Feb 21
41 °FClear.12 mph87%29.71 "Hg10 mi
11:20 pm41 °FClear.10 mph87%29.74 "Hg10 mi
10:50 pm41 °FClear.10 mph87%29.77 "Hg10 mi
10:20 pm39 °FClear.9 mph93%29.77 "Hg10 mi
9:50 pm39 °FClear.7 mph93%29.80 "Hg10 mi
9:20 pm39 °FClear.6 mph87%29.80 "Hg10 mi
8:50 pm39 °FClear.6 mph87%29.80 "Hg10 mi
8:20 pm39 °FClear.7 mph87%29.83 "Hg10 mi
7:50 pm41 °FPassing clouds.6 mph87%29.83 "HgN/A
7:20 pm41 °FPassing clouds.6 mph87%29.83 "HgN/A
6:50 pm43 °FPassing clouds.7 mph81%29.83 "HgN/A
6:20 pm43 °FPassing clouds.8 mph81%29.83 "HgN/A
5:50 pm45 °FPassing clouds.10 mph76%29.83 "HgN/A
5:20 pm45 °FScattered clouds.13 mph76%29.83 "HgN/A
4:50 pm46 °FScattered clouds.13 mph71%29.83 "HgN/A
3:50 pm46 °FScattered clouds.21 mph71%29.80 "HgN/A
3:20 pm46 °FScattered clouds.18 mph71%29.80 "HgN/A
2:50 pm46 °FScattered clouds.21 mph66%29.80 "HgN/A
2:20 pm46 °FScattered clouds.21 mph71%29.80 "HgN/A
1:50 pm46 °FScattered clouds.21 mph71%29.80 "HgN/A
1:20 pm46 °FScattered clouds.21 mph71%29.80 "HgN/A
12:50 pm46 °FScattered clouds.16 mph76%29.80 "HgN/A
12:20 pm46 °FScattered clouds.22 mph76%29.80 "HgN/A
11:50 am46 °FBroken clouds.22 mph71%29.80 "HgN/A
11:20 am46 °FPartly sunny.18 mph76%29.80 "HgN/A
10:50 am46 °FPartly sunny.17 mph82%29.77 "HgN/A
10:20 am45 °FPartly sunny.15 mph87%29.77 "HgN/A
9:50 am45 °FScattered clouds.13 mph87%29.77 "HgN/A
9:20 am43 °FScattered clouds.13 mph93%29.77 "HgN/A
Weather by CustomWeather, © 2017

See weather overviewHow to use our weather pages